Regional Weather Roundup
Issued by NWS Cleveland, OH

Home | Current Version | Previous Version | Text Only | Print | Product List | Glossary Off
Versions: 1 2 3 4 5 6 7 8 9 10 11 12 13 14 15 16 17 18 19 20 21 22 23 24 25 26 27 28 29 30 31 32 33 34 35 36 37 38 39 40 41 42 43 44 45 46 47 48 49 50

000
ASUS41 KCLE 191412
RWRCLE
OHIO REGIONAL WEATHER ROUNDUP
NATIONAL WEATHER SERVICE WILMINGTON, OH
1000 AM EDT THU OCT 19 2017

NOTE: "FAIR" INDICATES FEW OR NO CLOUDS BELOW 12,000 FEET WITH NO
SIGNIFICANT WEATHER AND/OR OBSTRUCTIONS TO VISIBILITY.

OHZ001>008-015>018-024>027-034-035-043-044-191500-
   NORTHWEST OHIO

CITY           SKY/WX    TMP DP  RH WIND       PRES   REMARKS
DEFIANCE       FAIR      57  47  69 W9        30.15R
FINDLAY        FAIR      61  46  57 SW9       30.16R
TOLEDO EXPRESS FAIR      58  49  72 SW15      30.13R
TOLEDO EXEC    FAIR      57  47  69 SW10      30.14R
LIMA           FAIR      59  48  67 SW12      30.17R
$$

OHZ009>014-019>023-028>033-038-089-191500-
   NORTHEAST OHIO

CITY           SKY/WX    TMP DP  RH WIND       PRES   REMARKS
CLE-HOPKINS    FAIR      60  46  59 SW13      30.18R
CLE-LAKEFRONT  FAIR      61  45  55 SW17      30.14R
CUY CO. ARPT   MOSUNNY   61  46  59 SW16      30.15R
LORAIN-ELYRIA  FAIR      59  44  57 SW9       30.16R
ASHTABULA      FAIR      56  46  69 SW13      30.16R
AKRON-CANTON   FAIR      57  45  64 SW12      30.20R
WOOSTER        FAIR      55  45  68 SW8       30.19S
MANSFIELD      FAIR      60  46  59 SW12      30.18R
YOUNGSTOWN     FAIR      56  45  66 S8        30.18S
$$

OHZ042-051>053-060>062-070>072-077>081-191500-
  SOUTHWEST OHIO

CITY           SKY/WX    TMP DP  RH WIND       PRES   REMARKS
CINC-COVINGTON FAIR      55  48  77 SW9       30.25R
CINC-LUNKEN    FAIR      53  50  89 CALM      30.27R
HAMILTON       FAIR      55  50  83 CALM      30.26R
DAYTON         FAIR      56  48  74 SW14      30.22R
WRIGHT-PAT AFB FAIR      57  49  74 SW12      30.22R
DAYTON GENERAL FAIR      55  46  71 S8        30.23R
WILMINGTON     FAIR      56  49  77 SW10      30.25R
$$

OHZ036-037-039>041-045>050-054>059-063>069-073>076-082>088-191500-
  CENTRAL AND SOUTHEAST OHIO

CITY           SKY/WX    TMP DP  RH WIND       PRES   REMARKS
COLUMBUS       FAIR      55  46  71 SW6       30.23R
OSU AIRPORT    FAIR      55  47  74 SW7       30.23R
BOLTON FIELD   SUNNY     54  46  76 SW8       30.24R
RICKENBACK AFB FAIR      53  47  79 SW10      30.23S
NEWARK         FAIR      54  46  74 S7        30.23S
MARION         FAIR      56  46  69 SW13      30.19S
LANCASTER      FAIR      57  48  72 SW13      30.24R
ZANESVILLE     FAIR      53  46  77 S7        30.24S
NEW PHILLY     FAIR      55  46  71 CALM      30.23S
$$




USA.gov is the U.S. government's official web portal to all federal, state and local government web resources and services.